IRIDIUM 135

Last updated on Fri Sep 11 2026 00:03:06 GMT+0000 (Coordinated Universal Time)

1 43070U 17083A 26253.47846165 .00000142 00000+0 43787-4 0 9991 2 43070 86.3925 286.3609 0002274 92.7429 267.4027 14.34218813456379
UTC large
Height (km)
Speed (km/s)
/
Latitude / Longitude
Inclination (degrees)
Orbital Period (minutes)
Azimuth
Elevation
Range (km)
Doppler Factor

Next 0 passes for location: London (51.5072 / 0.1276)

No passes found over London.
IRIDIUM 135